Retour au catalogue

STARLINK-38049

ActifCommunicationsSSO
NORAD 69751·PAYLOAD·🇺🇸 United States

Lancé Jul 2, 2026 depuis Vandenberg Space Force Base

Loading…

Prochains Passages (prochaines 24 heures)

TLE

FraisSource: CelesTrak SupGP

Époque: Sep 14, 2026, 23:15 UTC

1 69751C 26150N   26257.96923611  .00083262  00000+0  25851-2 0  2571
2 69751  97.2847  96.9561 0001830  92.3946  30.8728 15.33390481    14

Suivez STARLINK-38049 en temps réel avec AllMySat

Download on the App Store